DELTA 1 DEB, 7145

Orbit data source: Space-Track

DELTA 1 DEB, 7145 is space debris in LEO originally from a launch on Tue, 06 Nov 1973 UTC launched from the Air Force Western Test Range (AFWTR). Debris objects in space refer to the collection of defunct objects orbiting the Earth. Examples of debris include non-operational satellites, rocket bodies, and fragments generated from explosions, collisions, or faulty payload assembly.

Loading next visibility...
Identifier
7145, 1973-086DK
Orbit
LEO
Country
Flag of USUS
Related business
Manufacturer
Unknown
Mission
Spacecraft
Bus & Motor
Unknown
Mass
Unknown
Launch date (UTC)
1973-11-06 (53 years ago)
Launch vehicle
Unknown
Launch site
Air Force Western Test Range (AFWTR)
Object type
Payload
Rocket body
Debris
Shape & HBR
Unknown shape, 0.2 m
Radar Cross Section
Medium (>0.1 m² and <1 m²)

Expand to show TLE details & history
Last TLE update: 10 hours ago

TLE from 10 hours ago
0 DELTA 1 DEB
1 07145U 73086DK  26219.91890208 -.00000017  00000-0  28350-3 0  9998
2 07145 101.9458  17.4030 0316212 339.4262 174.8479 11.81591803274916
Epoch: 2026-08-07T22:03Z
TLE epoch observation values (Epoch: 2026-08-07T22:03:13.139Z)
Latitude
24.84989°
Longitude
-84.24235°
Altitude
2,023.504 km
Speed
6.782 km/s
True Right ascension
13h 32m 00s
True Declination
24° 44' 19"
Sunlit
Object was in daylight at epoch
Visualization orbit readout
Latitude
Unknown
Longitude
Unknown
Altitude
Unknown
Speed
Unknown
Apparent Right ascension
Unknown
Apparent Declination
Unknown
Sunlit
N/A
Visualization observer readout
Local Sidereal Time
22:03:05
Azimuth
Unknown
Elevation
Unknown
Doppler factor
Unknown
Orbital elements
Apogee altitude
2,019.392 km
Perigee altitude
1,504.591 km
Semi-major axis
8,140.128 km
Eccentricity
0.03162
Inclination
101.9458°
RAAN
17.403°
Arg. of periapsis
339.4262°
True anomaly
175.16095°
Mean anomaly
174.8479°
Eccentric anomaly
175.00563°
Mean motion
2.95526 °/min
Orbital period
121.82 mins
BSTAR
0.0002835
Loading maneuver chart data...
Computing Atmospheric mass density...
Loading historical data...
Loading historical data...
Loading historical data...
Loading historical data...
Loading historical data...
Loading historical data...
Loading historical data...

Documentation

Showing up to 5 results
|